Location: Ab? ar R?sh Ba?r?
(24.1861°N, 32.8847°E)
Time: 20:32:25
(UTC+00:00)

H-2A R/B - Pass Details

Date: 05 June 2022
Orbit: 576 x 652 km, 98.5° (Epoch: 03 July)

Event Time Altitude Azimuth Distance (km) Brightness Sun altitude
Rises 16:56:58 0° 34° (NE) 2,819 5.4 -5.5°
Reaches altitude 10° 16:59:38 10° 52° (NE) 1,928 4.4 -6.0°
Maximum altitude 17:02:38 19° 98° (E) 1,441 3.4 -6.6°
Drops below altitude 10° 17:05:39 10° 144° (SE) 1,954 4.1 -7.2°
Enters shadow 17:07:45 - 159° (SSE) 2,647 4.8 -7.6°
